Weather History for PAGK - December, 2012

Change the Weather History Date:

Thursday, December 20, 2012

  Actual Average Record
Temperature  
Mean Temperature -22 °F -  
Max Temperature -4 °F 4 °F 42 °F (1985)
Min Temperature -40 °F -9 °F -50 °F (1980)
Degree Days  
Heating Degree Days 87    
Moisture  
Dew Point -24 °F    
Average Humidity 74    
Maximum Humidity 82    
Minimum Humidity 50    
Precipitation  
Precipitation 0.00 in - - ()
Snow  
Snow 0.00 in - - ()
Snow Depth 10.00 in    
Sea Level Pressure  
Sea Level Pressure 30.36 in    
Wind  
Wind Speed 2 mph (NNW)    
Max Wind Speed 9 mph    
Max Gust Speed -    
Visibility 10 miles    
Events      
Averages and records for this station are not official NWS values.
T = Trace of Precipitation, MM = Missing Value Source: NWS Daily Summary

Daily Weather History Graph

Daily Weather History Graph

Search for Another Location

Airport or City:

Trip Planner

Search our weather history database for the weather conditions in past years. The results will help you decide how hot, cold, wet, or windy it might be!

Date:

Astronomy

Dec. 20, 2012 Rise Set
Actual Time 10:07 AM AKST 3:12 PM AKST
Civil Twilight 9:00 AM AKST 4:19 PM AKST
Nautical Twilight 7:58 AM AKST 5:21 PM AKST
Astronomical Twilight 7:02 AM AKST 6:17 PM AKST
Moon 12:14 PM AKST (12/20) 1:15 AM AKST (12/20)
Length of Visible Light 7h 18m
Length of Day
5h 05m
First Quarter, 56% of the Moon is Illuminated
Dec 20
First Quarter
Dec 28
Full
Jan 4
Last Quarter
Jan 11
New
Jan 18
First Quarter

Hourly Weather History & Observations

Time (AKST) Temp. Windchill Dew Point Humidity Pressure Visibility Wind Dir Wind Speed Gust Speed Precip Events Conditions
12:53 AM -27.0 °F - -31.0 °F 81% 30.21 in 10.0 mi Calm Calm - N/A   Clear
1:53 AM -26.0 °F -44.2 °F -32.1 °F 73% 30.22 in 10.0 mi NNW 6.9 mph - N/A   Clear
3:53 AM -26.0 °F - -29.9 °F 81% 30.28 in 10.0 mi Calm Calm - N/A   Clear
4:53 AM -25.1 °F - -29.9 °F 78% 30.30 in 10.0 mi Calm Calm - N/A   Clear
5:53 AM -14.1 °F -28.3 °F -18.0 °F 82% 30.28 in 10.0 mi WNW 5.8 mph - N/A   Clear
6:53 AM -22.0 °F - -26.0 °F 82% 30.32 in 10.0 mi Calm Calm - N/A   Clear
7:53 AM -27.9 °F - -32.1 °F 81% 30.35 in 10.0 mi Calm Calm - N/A   Partly Cloudy
8:53 AM -27.0 °F - -31.0 °F 81% 30.37 in 10.0 mi Calm Calm - N/A   Partly Cloudy
9:53 AM -29.9 °F -42.0 °F - N/A% 30.40 in 10.0 mi Variable 3.5 mph - N/A   Partly Cloudy
10:53 AM -9.9 °F -24.9 °F -17.0 °F 71% 30.11 in 10.0 mi NNW 6.9 mph - N/A   Partly Cloudy
11:53 AM -11.0 °F -20.4 °F -18.0 °F 71% 30.38 in 10.0 mi NE 3.5 mph - N/A   Partly Cloudy
12:53 PM -13.0 °F - -18.9 °F 75% 30.40 in 10.0 mi Calm Calm - N/A   Partly Cloudy
1:53 PM -11.0 °F - -18.9 °F 68% 30.40 in 10.0 mi Calm Calm - N/A   Partly Cloudy
2:53 PM -4.0 °F -19.0 °F -13.0 °F 65% 30.39 in 10.0 mi NNW 8.1 mph - N/A   Partly Cloudy
3:53 PM -5.1 °F -21.5 °F -15.0 °F 62% 30.40 in 10.0 mi NW 9.2 mph - N/A   Partly Cloudy
4:53 PM -6.0 °F -20.1 °F -15.0 °F 65% 30.40 in 10.0 mi NW 6.9 mph - N/A   Partly Cloudy
5:53 PM -16.1 °F - -20.0 °F 82% 30.41 in 10.0 mi Calm Calm - N/A   Clear
6:53 PM -20.0 °F - -25.1 °F 78% 30.44 in 10.0 mi Calm Calm - N/A   Clear
7:53 PM -24.0 °F - -27.9 °F 82% 30.46 in 10.0 mi Calm Calm - N/A   Clear
8:53 PM -20.9 °F - -25.1 °F 81% 30.45 in 10.0 mi Calm Calm - N/A   Clear
9:26 PM -20.9 °F -31.7 °F -25.1 °F 81% 30.17 in 10.0 mi NNW 3.5 mph - N/A   Clear
9:53 PM -22.0 °F - -27.9 °F 74% 30.46 in 10.0 mi Calm Calm - N/A   Clear
10:53 PM -23.1 °F - -27.9 °F 78% 30.43 in 10.0 mi Calm Calm - N/A   Clear
11:53 PM -27.9 °F - -32.1 °F 81% 30.45 in 10.0 mi Calm Calm - N/A   Clear